sat.trackr.live / text

‹ back to catalog

ASTROCAST-0403

NORAD 55111 · 2023-001DG

PAYLOAD ACTIVE UNKNOWN

§ Identity

Operator
Country
SWTZ
Launch date
2023-01-03
Launch site
AFETR
Launch vehicle
Mass (kg)
RCS (m²)

External: N2YO · Heavens-Above · Gunter

§ Orbital elements

Epoch: 2026-05-25T04:36:49.954176Z

Period
94.09 min
Inclination
97.5608°
Eccentricity
0.0005775
Mean motion
15.30418295 rev/d
Perigee alt
470.6 km
Apogee alt
478.5 km
Semi-major
6,852.7 km
B*
8.2528e-4
RAAN
238.9228°
Arg perigee
67.6249°
Mean anomaly
292.5602°
Rev number
14,104

§ Raw data

ASTROCAST-04031 55111U 23001DG  26145.19224484  .00024261  00000+0  82528-3 0  99932 55111  97.5608 238.9228 0005775  67.6249 292.5602 15.30418295141046

JSON: /api/v1/satellites/55111 · /tle

For live sub-satellite position, see the globe view (requires WebGL).

§ Visibility from observer

Set your observer location to see the next 7 days of passes ≥ 10°. The values pass through the URL so the page stays shareable.

No JS? Fill the form by hand. The geolocation button needs JavaScript.